This is the latest recevied weather packets stored in our database for station/object WA1NHP. If no packets are shown the sender has not sent any weather packets the latest 10 day(s).
| Time | Temp. | Humidity | Pressure | Rain* | Wind** | Luminosity | Snow |
|---|---|---|---|---|---|---|---|
| 1777849444 | 8.33° C | 45% | 1023.9 hPa | 0 mm | - | 16 W/m² | - |
| 1777848844 | 8.33° C | 45% | 1023.9 hPa | 0 mm | - | 23 W/m² | - |
| 1777848244 | 8.89° C | 44% | 1023.9 hPa | 0 mm | - | 23 W/m² | - |
| 1777847644 | 8.89° C | 44% | 1023.9 hPa | 0 mm | - | 42 W/m² | - |
| 1777847044 | 8.89° C | 44% | 1023.9 hPa | 0 mm | - | 44 W/m² | - |
| 1777846443 | 9.44° C | 45% | 1023.9 hPa | 0 mm | - | 69 W/m² | - |
| 1777845844 | 8.89° C | 44% | 1023.9 hPa | 0 mm | - | 130 W/m² | - |
| 1777845244 | 8.89° C | 44% | 1023.9 hPa | 0 mm | - | 111 W/m² | - |
| 1777844644 | 9.44° C | 43% | 1023.9 hPa | 0 mm | - | 123 W/m² | - |
| 1777844043 | 8.89° C | 45% | 1023.9 hPa | 0 mm | - | 151 W/m² | - |
| 1777843444 | 9.44° C | 45% | 1023.9 hPa | 0 mm | - | 148 W/m² | - |
| 1777842843 | 9.44° C | 44% | 1023.9 hPa | 0 mm | - | 160 W/m² | - |
| 1777842244 | 9.44° C | 43% | 1023.9 hPa | 0 mm | - | 195 W/m² | - |
| 1777841643 | 9.44° C | 44% | 1023.9 hPa | 0 mm | - | 195 W/m² | - |
| 1777841044 | 8.89° C | 45% | 1023.9 hPa | 0 mm | - | 160 W/m² | - |
| 1777840444 | 9.44° C | 44% | 1023.9 hPa | 0 mm | - | 225 W/m² | - |
| 1777839843 | 9.44° C | 44% | 1023.9 hPa | 0 mm | - | 374 W/m² | - |
| 1777839244 | 8.89° C | 45% | 1023.9 hPa | 0 mm | - | 251 W/m² | - |
| 1777838643 | 8.89° C | 45% | 1023.9 hPa | 0 mm | - | 237 W/m² | - |
| 1777838043 | 8.89° C | 45% | 1023.9 hPa | 0 mm | - | 309 W/m² | - |
| 1777837444 | 8.89° C | 45% | 1023.9 hPa | 0 mm | - | 341 W/m² | - |
| 1777836844 | 8.89° C | 46% | 1023.9 hPa | 0 mm | - | 336 W/m² | - |
| 1777836244 | 8.33° C | 47% | 1023.9 hPa | 0 mm | - | 162 W/m² | - |
| 1777835644 | 9.44° C | 45% | 1023.9 hPa | 0 mm | - | 163 W/m² | - |
| 1777835044 | 10° C | 46% | 1023.9 hPa | 0 mm | - | 366 W/m² | - |
* Rain latest hour (hover to see other rain measurements)
** Current wind speed in m/s (hover to see current wind gust speed)